Jackson, NJ

9:19 PM EST on December 03, 2016 (GMT -0500)
Lakehurst Naes

Weather History for KNEL - April, 2014

Change the Weather History Date:

Sunday, April 27, 2014

  Actual Average Record
Temperature  
Mean Temperature 50 °F -  
Max Temperature 37 °F 63 °F 81 °F (2013)
Min Temperature 39 °F 45 °F 33 °F (2001)
Degree Days  
Heating Degree Days 16    
Moisture  
Dew Point 35 °F    
Average Humidity 60    
Maximum Humidity 93    
Minimum Humidity 35    
Precipitation  
Precipitation 0.00 in - - ()
Sea Level Pressure  
Sea Level Pressure 29.98 in    
Wind  
Wind Speed 4 mph (NW)    
Max Wind Speed 14 mph    
Max Gust Speed 23 mph    
Averages and records for this station are not official NWS values.
T = Trace of Precipitation, MM = Missing Value Source: NWS Daily Summary

Daily Weather History Graph

Daily Weather History Graph

Search for Another Location

Airport or City:

Trip Planner

Search our weather history database for the weather conditions in past years. The results will help you decide how hot, cold, wet, or windy it might be!

Date:

Astronomy

Apr. 27, 2014 Rise Set
Actual Time 6:02 AM EDT 7:48 PM EDT
Civil Twilight 5:33 AM EDT 8:17 PM EDT
Nautical Twilight 4:58 AM EDT 8:52 PM EDT
Astronomical Twilight 4:21 AM EDT 9:30 PM EDT
Moon 5:01 AM EDT (4/27) 6:19 PM EDT (4/27)
Length of Visible Light 14h 43m
Length of Day
13h 45m
Waning Crescent, 3% of the Moon is Illuminated
Apr 27
Waning Crescent
Apr 29
New
May 6
First Quarter
May 14
Full
May 21
Last Quarter

Hourly Weather History & Observations

Time (EDT) Temp. Windchill Dew Point Humidity Pressure Visibility Wind Dir Wind Speed Gust Speed Precip Events Conditions
12:00 AM 46.9 °F - 45.0 °F 93% 29.88 in - Calm Calm - N/A   Mostly Cloudy
1:00 AM 46.9 °F - 44.1 °F 90% 29.89 in - Calm Calm - N/A   Overcast
2:00 AM 45.0 °F 43.5 °F 43.0 °F 93% 29.89 in - NW 3.5 mph - N/A   Clear
3:00 AM 43.0 °F - 41.0 °F 93% 29.89 in - Calm Calm - N/A   Clear
4:00 AM 44.1 °F 41.5 °F 39.9 °F 85% 29.91 in - NW 4.6 mph - N/A   Clear
5:00 AM 41.0 °F 39.0 °F 36.0 °F 82% 29.92 in - WNW 3.5 mph - N/A   Clear
6:00 AM 39.9 °F - 35.1 °F 83% 29.94 in - Calm Calm - N/A   Clear
7:00 AM 39.9 °F - 37.0 °F 89% 29.97 in - Calm Calm - N/A   Clear
8:00 AM 48.0 °F - 37.0 °F 66% 29.99 in - NW 6.9 mph - N/A   Clear
9:00 AM 51.1 °F - 35.1 °F 54% 29.99 in - WNW 13.8 mph 18.4 mph N/A   Clear
10:00 AM 53.1 °F - 34.0 °F 48% 30.00 in - NW 10.4 mph 19.6 mph N/A   Clear
11:00 AM 54.0 °F - 33.1 °F 45% 29.99 in - NW 9.2 mph 23.0 mph N/A   Clear
12:00 PM 55.9 °F - 33.1 °F 42% 30.00 in - NNW 13.8 mph 19.6 mph N/A   Unknown
1:00 PM 57.0 °F - 33.1 °F 40% 29.99 in - NW 10.4 mph 17.3 mph N/A   Unknown
2:00 PM 57.9 °F - 32.0 °F 37% 29.99 in - NW 13.8 mph 20.7 mph N/A   Scattered Clouds
3:00 PM 60.1 °F - 33.1 °F 36% 30.00 in - WNW 13.8 mph 18.4 mph N/A   Mostly Cloudy
4:00 PM 59.0 °F - 30.9 °F 35% 29.99 in - NW 10.4 mph 19.6 mph N/A   Scattered Clouds
5:00 PM 59.0 °F - 32.0 °F 36% 29.99 in - Variable 6.9 mph 18.4 mph N/A   Scattered Clouds
6:00 PM 59.0 °F - 30.9 °F 35% 30.00 in - NNW 10.4 mph 16.1 mph N/A   Partly Cloudy
7:00 PM 57.9 °F - 32.0 °F 37% 30.04 in - Variable 3.5 mph - N/A   Mostly Cloudy
8:00 PM 54.0 °F - 30.9 °F 41% 30.06 in - Calm Calm - N/A   Mostly Cloudy
9:00 PM 48.9 °F - 33.1 °F 54% 30.09 in - Calm Calm - N/A   Partly Cloudy
10:00 PM 46.9 °F - 33.1 °F 59% 30.10 in - Calm Calm - N/A   Clear
11:00 PM 46.9 °F - 32.0 °F 56% 30.12 in - NW 3.5 mph - N/A   Clear